User: anonymous   Login
Location: Franzen
(48.6167°N, 15.3833°E)
Time: 05:19:37
(UTC+00:00)
Language:

Helios 1A Rocket - Orbit

View from above orbital plane
View from above orbital plane
View from above satellite
View from above satellite

Ground track
Ground track

The orbit data is extracted from the following two-line orbital elements,

1 23608U 95033D   21171.56646535  .00000144  00000-0  17970-4 0  9998
2 23608  98.2907 212.2433 0017236 104.3654 255.9481 14.97712971406535
Epoch (UTC): 20 June 2021 13:35:42
Eccentricity: 0.0017236
inclination: 98.2907°
perigee height: 562 km
apogee height: 586 km
right ascension of ascending node: 212.2433°
argument of perigee: 104.3654°
revolutions per day: 14.97712971
mean anomaly at epoch: 255.9481°
orbit number at epoch: 40653

The dashed part of the orbit path shows where the satellite is in the earth's shadow,  

DLR